Location: Newark
(46.7636°N, 1.8358°W)
Time: 22:40:32
(UTC+00:00)

Tiros 1 - Pass Details

Date: 28 October 2019
Orbit: 630 x 664 km, 48.4° (Epoch: 14 November)

Event Time Altitude Azimuth Distance (km) Brightness Sun altitude
Exits shadow 05:12:16 22° 239° (WSW) 1,424 8.4 -16.1°
Maximum altitude 05:13:17 24° 220° (SW) 1,362 8.5 -15.9°
Drops below altitude 10° 05:17:07 10° 166° (SSE) 2,074 10.0 -15.3°
Sets 05:19:48 0° 153° (SSE) 2,982 11.0 -14.8°
